Denver, CO

12:07 PM MDT on April 26, 2017 (GMT -0600)
Denver International

Weather History for KDEN - January, 2013

Change the Weather History Date:

Sunday, January 13, 2013

  Actual Average Record
Temperature  
Mean Temperature 1 °F 31 °F  
Max Temperature 11 °F 44 °F 69 °F (1996)
Min Temperature -10 °F 18 °F -20 °F (1875)
Degree Days  
Heating Degree Days 64 34  
Month to date heating degree days 518 447  
Since 1 July heating degree days 2751 2915  
Cooling Degree Days 0 0  
Month to date cooling degree days 0 0  
Year to date cooling degree days 0 0  
Moisture  
Dew Point -5 °F    
Average Humidity 73    
Maximum Humidity 82    
Minimum Humidity 63    
Precipitation  
Precipitation T in 0.01 in 0.24 in (1932)
Month to date precipitation 0.08 0.17  
Year to date precipitation 0.08 0.17  
Snow  
Snow T in - - ()
Month to date snowfall 1.4  
Since 1 July snowfall 13.8  
Snow Depth 1.00 in    
Sea Level Pressure  
Sea Level Pressure 30.26 in    
Wind  
Wind Speed 6 mph (SSE)    
Max Wind Speed 10 mph    
Max Gust Speed 12 mph    
Visibility 9 miles    
Events Snow    
T = Trace of Precipitation, MM = Missing Value Source: NWS Daily Summary

Daily Weather History Graph

Daily Weather History Graph

Search for Another Location

Airport or City:

Trip Planner

Search our weather history database for the weather conditions in past years. The results will help you decide how hot, cold, wet, or windy it might be!

Date:

Astronomy

Jan. 13, 2013 Rise Set
Actual Time 7:18 AM MST 4:56 PM MST
Civil Twilight 6:49 AM MST 5:26 PM MST
Nautical Twilight 6:15 AM MST 5:59 PM MST
Astronomical Twilight 5:43 AM MST 6:32 PM MST
Moon 8:19 AM MST (1/13) 7:37 PM MST (1/13)
Length of Visible Light 10h 37m
Length of Day
9h 37m
Waxing Crescent, 5% of the Moon is Illuminated
Jan 13
Waxing Crescent
Jan 18
First Quarter
Jan 26
Full
Feb 3
Last Quarter
Feb 10
New

Hourly Weather History & Observations

Time (MST) Temp. Windchill Dew Point Humidity Pressure Visibility Wind Dir Wind Speed Gust Speed Precip Events Conditions
12:53 AM -5.1 °F -15.8 °F -11.0 °F 76% 30.23 in 9.0 mi SSE 4.6 mph - N/A   Mostly Cloudy
1:53 AM -7.1 °F -22.8 °F -13.0 °F 75% 30.23 in 10.0 mi SSE 8.1 mph - N/A   Mostly Cloudy
2:53 AM -0.9 °F -14.1 °F -8.0 °F 72% 30.21 in 10.0 mi South 6.9 mph - N/A   Mostly Cloudy
3:53 AM -2.9 °F -16.5 °F -9.0 °F 75% 30.19 in 10.0 mi South 6.9 mph - N/A   Scattered Clouds
4:53 AM -2.9 °F -15.0 °F -8.0 °F 79% 30.22 in 10.0 mi South 5.8 mph - N/A   Scattered Clouds
5:53 AM -6.0 °F -20.1 °F -11.9 °F 75% 30.25 in 10.0 mi South 6.9 mph - N/A   Scattered Clouds
6:53 AM -0.9 °F -8.9 °F -8.0 °F 72% 30.27 in 10.0 mi WSW 3.5 mph - N/A   Scattered Clouds
7:53 AM -0.9 °F -12.7 °F -8.0 °F 72% 30.28 in 9.0 mi WSW 5.8 mph - N/A   Scattered Clouds
8:53 AM 3.0 °F -8.0 °F -4.0 °F 73% 30.28 in 8.0 mi SW 5.8 mph - N/A   Scattered Clouds
9:53 AM 1.9 °F -7.6 °F -5.1 °F 72% 30.32 in 9.0 mi SSE 4.6 mph - N/A   Scattered Clouds
10:53 AM 6.1 °F -0.9 °F -2.0 °F 69% 30.30 in 7.0 mi South 3.5 mph - N/A   Scattered Clouds
11:53 AM 8.1 °F -0.5 °F -2.0 °F 64% 30.25 in 10.0 mi SE 4.6 mph - N/A   Mostly Cloudy
12:53 PM 10.0 °F 1.8 °F -0.9 °F 61% 30.22 in 10.0 mi East 4.6 mph - N/A   Mostly Cloudy
1:53 PM 10.0 °F -0.9 °F -0.9 °F 61% 30.25 in 10.0 mi East 6.9 mph - N/A   Mostly Cloudy
2:53 PM 9.0 °F -5.1 °F -2.0 °F 61% 30.25 in 10.0 mi ENE 10.4 mph - N/A   Mostly Cloudy
3:53 PM 9.0 °F -2.2 °F -0.9 °F 64% 30.27 in 10.0 mi ENE 6.9 mph - N/A   Mostly Cloudy
4:53 PM 6.1 °F -2.8 °F -2.9 °F 67% 30.29 in 10.0 mi NE 4.6 mph - N/A   Mostly Cloudy
5:53 PM 6.1 °F -0.9 °F -2.9 °F 67% 30.33 in 10.0 mi South 3.5 mph - N/A   Mostly Cloudy
6:53 PM 5.0 °F -4.1 °F -4.0 °F 66% 30.32 in 10.0 mi South 4.6 mph - N/A   Mostly Cloudy
7:53 PM 6.1 °F -2.8 °F -0.9 °F 73% 30.32 in 3.0 mi South 4.6 mph - 0.00 in Snow Light Snow
8:53 PM 6.1 °F -0.9 °F 1.0 °F 80% 30.31 in 3.0 mi SSW 3.5 mph - 0.00 in Snow Light Snow
9:09 PM 6.8 °F -0.1 °F -0.4 °F 72% 30.05 in 3.0 mi SSW 3.5 mph - 0.00 in Snow Light Snow
9:45 PM 3.2 °F -4.2 °F -0.4 °F 85% 30.05 in 7.0 mi SSE 3.5 mph - 0.00 in   Scattered Clouds
9:53 PM 1.9 °F -5.6 °F -2.9 °F 80% 30.32 in 7.0 mi SSE 3.5 mph - 0.00 in   Scattered Clouds
10:53 PM -2.9 °F -13.3 °F -8.0 °F 79% 30.32 in 10.0 mi SSE 4.6 mph - N/A   Scattered Clouds
11:53 PM -2.0 °F -17.7 °F -8.0 °F 76% 30.31 in 10.0 mi SSE 9.2 mph - N/A   Mostly Cloudy